This is the latest recevied weather packets stored in our database for station/object W3BRL. If no packets are shown the sender has not sent any weather packets the latest 10 day(s).
| Time | Temp. | Humidity | Pressure | Rain* | Wind** | Luminosity | Snow |
|---|---|---|---|---|---|---|---|
| 1777744008 | 5° C | 90% | 1013 hPa | 0 mm | - | 370 W/m² | - |
| 1777743704 | 5° C | 92% | 1013.1 hPa | 1.27 mm | - | 301 W/m² | - |
| 1777743402 | 4.44° C | 92% | 1012.9 hPa | 3.05 mm | - | 467 W/m² | - |
| 1777743099 | 3.89° C | 90% | 1013 hPa | 3.05 mm | - | 348 W/m² | - |
| 1777742797 | 3.33° C | 90% | 1013.1 hPa | 4.32 mm | - | 228 W/m² | - |
| 1777742493 | 3.33° C | 90% | 1013 hPa | 7.87 mm | - | 155 W/m² | - |
| 1777742189 | 3.33° C | 89% | 1013.1 hPa | 9.65 mm | - | 101 W/m² | - |
| 1777741886 | 3.33° C | 88% | 1013.1 hPa | 4.83 mm | - | 90 W/m² | - |
| 1777741583 | 3.33° C | 85% | 1013.1 hPa | 3.05 mm | - | 90 W/m² | - |
| 1777741280 | 5.56° C | 81% | 1013 hPa | 3.05 mm | - | 38 W/m² | - |
| 1777740976 | 6.11° C | 82% | 1012.9 hPa | 0 mm | - | 49 W/m² | - |
| 1777740674 | 6.11° C | 83% | 1012.8 hPa | 0 mm | - | 90 W/m² | - |
| 1777740369 | 6.11° C | 81% | 1012.5 hPa | 0 mm | - | 115 W/m² | - |
| 1777740066 | 6.11° C | 80% | 1013 hPa | 0 mm | - | 166 W/m² | - |
| 1777739763 | 6.11° C | 83% | 1012.8 hPa | 0 mm | - | 189 W/m² | - |
| 1777739459 | 6.11° C | 83% | 1012.6 hPa | 0 mm | - | 124 W/m² | - |
| 1777739156 | 5.56° C | 84% | 1012.9 hPa | 0 mm | - | 352 W/m² | - |
| 1777738854 | 5.56° C | 84% | 1012.6 hPa | 0 mm | - | 383 W/m² | - |
| 1777738550 | 5° C | 86% | 1012.8 hPa | 0 mm | - | 328 W/m² | - |
| 1777738248 | 5° C | 86% | 1012.9 hPa | 0 mm | - | 232 W/m² | - |
| 1777737946 | 5° C | 86% | 1013 hPa | 0 mm | - | 116 W/m² | - |
| 1777737644 | 4.44° C | 85% | 1012.8 hPa | 0 mm | - | 90 W/m² | - |
| 1777737342 | 5° C | 84% | 1013 hPa | 0 mm | - | 66 W/m² | - |
| 1777737039 | 5° C | 82% | 1013.1 hPa | 0 mm | - | 53 W/m² | - |
| 1777736735 | 5.56° C | 77% | 1012.9 hPa | 0 mm | - | 31 W/m² | - |
* Rain latest hour (hover to see other rain measurements)
** Current wind speed in m/s (hover to see current wind gust speed)